Location: Berkeley
(37.8716°N, 122.2727°W)
Time: 20:57:41
(UTC-07:00)

Envisat - Pass Details

Date: 22 February 2019
Orbit: 764 x 766 km, 98.2° (Epoch: 21 March)

Event Time Altitude Azimuth Distance (km) Brightness Sun altitude
Rises 19:35:16 0° 191° (S) 3,217 6.3 -20.4°
Reaches altitude 10° 19:37:48 10° 201° (SSW) 2,296 5.7 -20.9°
Maximum altitude 19:42:17 32° 263° (W) 1,305 4.8 -21.8°
Drops below altitude 10° 19:46:48 10° 326° (NW) 2,309 6.0 -22.7°
Sets 19:49:21 0° 337° (NNW) 3,239 6.6 -23.2°
